Terminal Aerodrome Forecast
Issued by NWS Blacksburg, VA

Home | Current Version | Previous Version | Text Only | Print | Product List | Glossary On
Versions: 1 2 3 4 5 6 7 8 9 10 11 12 13 14 15 16 17 18 19 20 21 22 23 24 25 26 27 28 29 30 31 32 33 34 35 36 37 38 39
000
FTUS41 KRNK 220520
TAFROA
TAF
KROA 220520Z 2206/2306 00000KT 2SM -RA BR SCT001 OVC005
      TEMPO 2206/2210 1/4SM FG OVC002
     FM221100 00000KT 4SM BR VCSH SCT001 OVC003
     FM221500 10004KT 6SM -SHRA BR SCT007 OVC015
     FM221700 10005KT 3SM -RA BR OVC007
     FM230000 09007KT 1SM SHRA BR SCT007 OVC013=

USA.gov is the U.S. government's official web portal to all federal, state and local government web resources and services.